EZY83UE LFPG-EGGP

Flight info

Callsign EZY83UE
Flight time N/A
Altitude 30000
Route ATREX DCT VESAN DCT RATUK DCT SOVAT/N0439F360 L613 SANDY UN57 WELIN T420 ELVOS
Aircraft A320/M-SDE2E3FGHIJ1RWXYZ/LB1

Departure

Time 2026-05-08 15:28
Airport Charles de Gaulle International Airport (LFPG)

Arrival

Time N/A
Airport Liverpool John Lennon Airport (EGGP)
Time Latitude Longitude Altitude Speed Heading
2026-05-08 14:57 49.00523 2.56095 361 ft 0 kts 165°
2026-05-08 14:57 49.00524 2.56111 366 ft 0 kts 166°
2026-05-08 14:59 49.00529 2.56166 362 ft 0 kts 174°
2026-05-08 15:00 49.00533 2.56183 364 ft 0 kts 166°
2026-05-08 15:14 49.00533 2.56182 354 ft 0 kts 168°
2026-05-08 15:16 49.00539 2.56181 360 ft 4 kts 168°
2026-05-08 15:16 49.00565 2.56170 356 ft 4 kts 165°
2026-05-08 15:16 49.00587 2.56162 364 ft 4 kts 176°
2026-05-08 15:17 49.00608 2.56171 359 ft 4 kts 236°
2026-05-08 15:17 49.00617 2.56206 356 ft 3 kts 264°
2026-05-08 15:17 49.00618 2.56234 354 ft 0 kts 265°
2026-05-08 15:20 49.00617 2.56224 354 ft 5 kts 263°
2026-05-08 15:20 49.00610 2.56140 358 ft 8 kts 262°
2026-05-08 15:20 49.00598 2.56057 354 ft 11 kts 254°
2026-05-08 15:20 49.00571 2.55862 356 ft 19 kts 262°
2026-05-08 15:21 49.00560 2.55681 354 ft 16 kts 265°
2026-05-08 15:21 49.00583 2.55617 357 ft 2 kts 290°
2026-05-08 15:21 49.00613 2.55466 358 ft 31 kts 296°
2026-05-08 15:21 49.00799 2.55320 360 ft 25 kts 343°
2026-05-08 15:22 49.00960 2.55247 358 ft 26 kts 343°
2026-05-08 15:22 49.01145 2.55169 354 ft 26 kts 343°
2026-05-08 15:22 49.01234 2.55060 356 ft 11 kts 250°
2026-05-08 15:22 49.01284 2.54965 354 ft 17 kts 343°
2026-05-08 15:23 49.01420 2.54909 354 ft 24 kts 352°
2026-05-08 15:23 49.01607 2.54883 359 ft 30 kts 355°
2026-05-08 15:23 49.01803 2.54801 356 ft 31 kts 304°
2026-05-08 15:23 49.01829 2.54538 361 ft 23 kts 266°
2026-05-08 15:24 49.01816 2.54282 363 ft 26 kts 265°
2026-05-08 15:24 49.01800 2.53993 354 ft 29 kts 265°
2026-05-08 15:24 49.01785 2.53674 357 ft 32 kts 266°
2026-05-08 15:24 49.01768 2.53383 356 ft 27 kts 265°
2026-05-08 15:25 49.01753 2.53078 356 ft 30 kts 266°
2026-05-08 15:25 49.01735 2.52750 356 ft 32 kts 265°
2026-05-08 15:25 49.01719 2.52428 356 ft 23 kts 265°
2026-05-08 15:25 49.01710 2.52250 358 ft 14 kts 266°
2026-05-08 15:26 49.01766 2.52139 356 ft 16 kts
2026-05-08 15:26 49.01884 2.52127 354 ft 18 kts 356°
2026-05-08 15:26 49.02022 2.52112 356 ft 21 kts 356°
2026-05-08 15:26 49.02113 2.52165 353 ft 10 kts 91°
2026-05-08 15:27 49.02119 2.52309 359 ft 26 kts 86°
2026-05-08 15:27 49.02163 2.52966 362 ft 96 kts 83°
2026-05-08 15:27 49.02229 2.54247 356 ft 148 kts 86°
2026-05-08 15:27 49.02331 2.56003 623 ft 169 kts 82°
2026-05-08 15:28 49.02450 2.57803 1275 ft 172 kts 84°
2026-05-08 15:28 49.02569 2.59645 1872 ft 181 kts 83°
2026-05-08 15:28 49.02695 2.61647 2251 ft 202 kts 85°
2026-05-08 15:28 49.02794 2.63851 2649 ft 221 kts 86°
2026-05-08 15:29 49.02888 2.66371 3034 ft 246 kts 86°
2026-05-08 15:29 49.03007 2.69060 3687 ft 257 kts 85°
2026-05-08 15:29 49.03147 2.71811 4538 ft 262 kts 83°
2026-05-08 15:29 49.03734 2.74406 5303 ft 268 kts 53°
2026-05-08 15:30 49.05228 2.76125 6121 ft 273 kts 19°
2026-05-08 15:30 49.07087 2.76288 6899 ft 277 kts 347°
2026-05-08 15:30 49.08937 2.75238 7695 ft 281 kts 333°
2026-05-08 15:30 49.10671 2.73835 8511 ft 284 kts 330°
2026-05-08 15:31 49.12422 2.72417 9323 ft 287 kts 332°
2026-05-08 15:31 49.14236 2.71089 10107 ft 291 kts 334°
2026-05-08 15:31 49.16101 2.69874 10513 ft 309 kts 336°
2026-05-08 15:31 49.18183 2.68649 10769 ft 330 kts 338°
2026-05-08 15:32 49.20376 2.67460 11357 ft 337 kts 339°
2026-05-08 15:32 49.22624 2.66293 12056 ft 342 kts 340°
2026-05-08 15:32 49.24892 2.65135 12787 ft 345 kts 340°
2026-05-08 15:32 49.27168 2.63973 13498 ft 349 kts 340°
2026-05-08 15:33 49.29490 2.62778 14172 ft 352 kts 340°
2026-05-08 15:33 49.31821 2.61566 14793 ft 356 kts 340°
2026-05-08 15:33 49.34165 2.60340 15419 ft 358 kts 340°
2026-05-08 15:33 49.36548 2.59091 16052 ft 361 kts 340°
2026-05-08 15:34 49.38966 2.57823 16683 ft 364 kts 339°
2026-05-08 15:34 49.41340 2.56576 17293 ft 367 kts 339°
2026-05-08 15:34 49.43765 2.55303 17907 ft 370 kts 339°
2026-05-08 15:34 49.46206 2.54019 18484 ft 373 kts 339°
2026-05-08 15:35 49.48666 2.52724 19042 ft 374 kts 339°
2026-05-08 15:35 49.51115 2.51433 19600 ft 376 kts 340°
2026-05-08 15:35 49.53605 2.50118 20156 ft 378 kts 340°
2026-05-08 15:35 49.56095 2.48800 20704 ft 380 kts 340°
2026-05-08 15:36 49.58608 2.47470 21269 ft 382 kts 340°
2026-05-08 15:36 49.61132 2.46134 21839 ft 383 kts 340°
2026-05-08 15:36 49.63655 2.44796 22397 ft 385 kts 340°
2026-05-08 15:36 49.66189 2.43445 22949 ft 387 kts 340°
2026-05-08 15:37 49.68744 2.42079 23492 ft 389 kts 340°
2026-05-08 15:37 49.71299 2.40714 23946 ft 390 kts 340°
2026-05-08 15:37 49.73883 2.39335 24345 ft 392 kts 340°
2026-05-08 15:37 49.76473 2.37953 24749 ft 395 kts 340°
2026-05-08 15:38 49.79069 2.36567 25190 ft 395 kts 340°
2026-05-08 15:38 49.81661 2.35135 25635 ft 395 kts 339°
2026-05-08 15:38 49.84231 2.33659 26083 ft 395 kts 338°
2026-05-08 15:38 49.86800 2.32154 26520 ft 395 kts 338°
2026-05-08 15:39 49.89382 2.30634 26952 ft 395 kts 338°
2026-05-08 15:39 49.91958 2.29126 27377 ft 395 kts 338°
2026-05-08 15:39 49.94524 2.27630 27792 ft 396 kts 338°
2026-05-08 15:39 49.97114 2.26123 28171 ft 396 kts 338°
2026-05-08 15:40 49.99692 2.24624 28551 ft 397 kts 338°
2026-05-08 15:40 50.02290 2.23115 28925 ft 398 kts 338°
2026-05-08 15:40 50.04887 2.21602 29277 ft 399 kts 338°
2026-05-08 15:40 50.07482 2.20086 29610 ft 400 kts 338°
2026-05-08 15:41 50.10095 2.18561 29952 ft 401 kts 338°
2026-05-08 15:41 50.12697 2.17043 30050 ft 396 kts 338°
2026-05-08 15:41 50.15220 2.15574 30063 ft 380 kts 338°
2026-05-08 15:41 50.17676 2.14143 30075 ft 374 kts 338°
2026-05-08 15:42 50.22540 2.11292 30067 ft 372 kts 338°
2026-05-08 15:42 50.27376 2.08440 30067 ft 372 kts 338°
2026-05-08 15:43 50.32219 2.05577 30068 ft 372 kts 338°
2026-05-08 15:43 50.36981 2.02446 30066 ft 371 kts 329°
2026-05-08 15:44 50.41026 1.97430 30072 ft 371 kts 320°
2026-05-08 15:44 50.44931 1.92110 30059 ft 372 kts 320°
2026-05-08 15:45 50.48844 1.86785 30064 ft 373 kts 320°
2026-05-08 15:45 50.52748 1.81452 30049 ft 373 kts 319°
2026-05-08 15:46 50.56667 1.76075 30056 ft 374 kts 319°
2026-05-08 15:46 50.60586 1.70700 30063 ft 374 kts 319°
2026-05-08 15:47 50.64511 1.65289 30068 ft 375 kts 319°
2026-05-08 15:47 50.68434 1.59855 30075 ft 375 kts 319°
2026-05-08 15:48 50.74316 1.51695 30068 ft 376 kts 319°
2026-05-08 15:49 50.78241 1.46238 30068 ft 375 kts 319°
2026-05-08 15:49 50.82157 1.40788 30072 ft 376 kts 319°
2026-05-08 15:50 50.86089 1.35316 30062 ft 376 kts 318°
2026-05-08 15:50 50.89991 1.29864 30078 ft 377 kts 318°
2026-05-08 15:51 50.93923 1.24357 30078 ft 378 kts 318°
2026-05-08 15:51 50.97859 1.18826 30086 ft 378 kts 318°
2026-05-08 15:52 51.01795 1.13280 30088 ft 378 kts 318°
2026-05-08 15:52 51.05727 1.07720 30091 ft 378 kts 318°
2026-05-08 15:53 51.09587 1.02015 30092 ft 379 kts 315°
2026-05-08 15:53 51.13338 0.96136 30094 ft 379 kts 315°
2026-05-08 15:54 51.17089 0.90234 30066 ft 379 kts 314°
2026-05-08 15:54 51.20850 0.84354 30067 ft 380 kts 314°
2026-05-08 15:55 51.24633 0.78456 30069 ft 380 kts 314°
2026-05-08 15:55 51.30298 0.69598 30070 ft 380 kts 314°
2026-05-08 15:56 51.34062 0.63675 30096 ft 380 kts 314°
2026-05-08 15:56 51.37837 0.57736 30095 ft 380 kts 314°
2026-05-08 15:57 51.41611 0.51800 30088 ft 381 kts 314°
2026-05-08 15:57 51.45374 0.45850 30085 ft 381 kts 313°
2026-05-08 15:58 51.48499 0.40887 30084 ft 381 kts 313°
2026-05-08 15:58 51.52276 0.34886 30067 ft 382 kts 313°
2026-05-08 15:59 51.56050 0.28870 30067 ft 382 kts 313°
2026-05-08 15:59 51.59818 0.22845 30076 ft 382 kts 313°
2026-05-08 16:00 51.63580 0.16815 30071 ft 382 kts 313°
2026-05-08 16:00 51.67325 0.10765 30070 ft 382 kts 313°
2026-05-08 16:01 51.71045 0.04650 30072 ft 382 kts 312°
2026-05-08 16:01 51.74751 -0.01486 30087 ft 382 kts 312°
2026-05-08 16:02 51.78466 -0.07627 30084 ft 383 kts 312°
2026-05-08 16:02 51.82198 -0.13782 30099 ft 384 kts 312°
2026-05-08 16:03 51.85929 -0.19946 30072 ft 384 kts 312°
2026-05-08 16:03 51.89657 -0.26137 30071 ft 384 kts 311°
2026-05-08 16:04 51.93387 -0.32357 30068 ft 384 kts 311°
2026-05-08 16:04 51.97100 -0.38566 30069 ft 384 kts 311°
2026-05-08 16:05 52.00824 -0.44803 30071 ft 384 kts 311°
2026-05-08 16:05 52.04518 -0.51002 30083 ft 384 kts 311°
2026-05-08 16:06 52.08234 -0.57255 30076 ft 384 kts 311°
2026-05-08 16:06 52.10311 -0.60763 30072 ft 384 kts 311°
2026-05-08 16:07 52.13973 -0.66964 30071 ft 384 kts 311°
2026-05-08 16:07 52.17654 -0.73195 30073 ft 384 kts 311°
2026-05-08 16:08 52.21374 -0.79518 30070 ft 384 kts 311°
2026-05-08 16:08 52.25243 -0.85660 30015 ft 396 kts 321°
2026-05-08 16:09 52.27569 -0.88113 29412 ft 396 kts 326°
2026-05-08 16:09 52.29916 -0.90430 28789 ft 393 kts 326°
2026-05-08 16:09 52.32210 -0.92688 27912 ft 386 kts 326°
2026-05-08 16:09 52.34454 -0.94900 27514 ft 369 kts 326°
2026-05-08 16:10 52.36610 -0.97031 27087 ft 355 kts 326°
2026-05-08 16:10 52.38689 -0.99096 26688 ft 346 kts 326°
2026-05-08 16:10 52.40743 -1.01150 26277 ft 343 kts 325°
2026-05-08 16:10 52.42766 -1.03178 25840 ft 341 kts 325°
2026-05-08 16:11 52.44781 -1.05205 25401 ft 339 kts 325°
2026-05-08 16:11 52.46801 -1.07236 24973 ft 338 kts 325°
2026-05-08 16:11 52.48787 -1.09232 24550 ft 337 kts 325°
2026-05-08 16:11 52.50792 -1.11246 24115 ft 336 kts 325°
2026-05-08 16:12 52.52782 -1.13251 23688 ft 336 kts 325°
2026-05-08 16:12 52.54768 -1.15248 23195 ft 335 kts 326°
2026-05-08 16:12 52.56750 -1.17241 22773 ft 333 kts 326°
2026-05-08 16:12 52.58715 -1.19224 22363 ft 330 kts 325°
2026-05-08 16:13 52.60662 -1.21193 21946 ft 328 kts 325°
2026-05-08 16:13 52.62603 -1.23157 21543 ft 326 kts 325°
2026-05-08 16:13 52.64537 -1.25116 21142 ft 325 kts 325°
2026-05-08 16:13 52.66458 -1.27062 20745 ft 323 kts 325°
2026-05-08 16:14 52.68366 -1.28996 20359 ft 322 kts 325°
2026-05-08 16:14 52.70276 -1.30937 19973 ft 321 kts 325°
2026-05-08 16:14 52.72196 -1.32894 19756 ft 333 kts 325°
2026-05-08 16:14 52.74187 -1.34926 19578 ft 337 kts 326°
2026-05-08 16:15 52.76183 -1.36959 19331 ft 337 kts 325°
2026-05-08 16:15 52.78178 -1.38990 19080 ft 336 kts 325°
2026-05-08 16:15 52.80166 -1.41016 18840 ft 335 kts 325°
2026-05-08 16:15 52.82151 -1.43045 18598 ft 335 kts 325°
2026-05-08 16:16 52.84125 -1.45066 18345 ft 334 kts 325°
2026-05-08 16:16 52.86096 -1.47085 18090 ft 333 kts 325°
2026-05-08 16:16 52.88057 -1.49095 17847 ft 331 kts 325°
2026-05-08 16:16 52.90013 -1.51103 17594 ft 330 kts 325°
2026-05-08 16:17 52.91968 -1.53113 17368 ft 330 kts 325°
2026-05-08 16:17 52.93258 -1.54439 17207 ft 329 kts 325°
2026-05-08 16:17 52.95855 -1.57106 16892 ft 327 kts 325°
2026-05-08 16:17 52.97786 -1.59100 16655 ft 326 kts 325°
2026-05-08 16:18 52.99706 -1.61089 16425 ft 325 kts 325°
2026-05-08 16:18 53.01619 -1.63071 16181 ft 324 kts 325°
2026-05-08 16:18 53.03401 -1.65303 15949 ft 319 kts 312°
2026-05-08 16:18 53.04781 -1.68141 15722 ft 313 kts 298°
2026-05-08 16:19 53.05696 -1.71376 15486 ft 308 kts 284°
2026-05-08 16:19 53.06150 -1.74825 15274 ft 305 kts 276°
2026-05-08 16:19 53.06480 -1.78303 15054 ft 304 kts 276°
2026-05-08 16:19 53.06813 -1.81769 14833 ft 303 kts 276°
2026-05-08 16:20 53.07146 -1.85233 14611 ft 302 kts 276°
2026-05-08 16:20 53.07476 -1.88672 14391 ft 301 kts 276°
2026-05-08 16:20 53.07805 -1.92109 14176 ft 300 kts 276°
2026-05-08 16:20 53.08132 -1.95519 13962 ft 299 kts 276°
2026-05-08 16:21 53.08457 -1.98937 13732 ft 298 kts 276°
2026-05-08 16:21 53.08774 -2.02338 13510 ft 297 kts 276°
2026-05-08 16:21 53.09090 -2.05742 13290 ft 297 kts 276°
2026-05-08 16:21 53.09404 -2.09143 13070 ft 297 kts 276°
2026-05-08 16:22 53.09719 -2.12526 12865 ft 297 kts 276°
2026-05-08 16:22 53.10035 -2.15916 12649 ft 296 kts 276°
2026-05-08 16:22 53.10350 -2.19293 12440 ft 295 kts 276°
2026-05-08 16:22 53.10663 -2.22666 12218 ft 294 kts 276°
2026-05-08 16:23 53.10976 -2.26033 12010 ft 294 kts 276°
2026-05-08 16:23 53.11286 -2.29393 11800 ft 293 kts 276°
2026-05-08 16:23 53.11588 -2.32724 11585 ft 292 kts 276°
2026-05-08 16:23 53.11889 -2.36070 11379 ft 292 kts 276°
2026-05-08 16:24 53.12189 -2.39397 11154 ft 291 kts 276°
2026-05-08 16:24 53.12492 -2.42730 10958 ft 290 kts 276°
2026-05-08 16:24 53.12790 -2.46048 10751 ft 290 kts 276°
2026-05-08 16:24 53.13085 -2.49357 10531 ft 289 kts 276°
2026-05-08 16:25 53.13378 -2.52667 10332 ft 289 kts 276°
2026-05-08 16:25 53.13674 -2.55976 10122 ft 289 kts 276°
2026-05-08 16:25 53.13976 -2.59281 9928 ft 288 kts 276°
2026-05-08 16:25 53.14291 -2.62561 9733 ft 287 kts 277°
2026-05-08 16:26 53.14610 -2.65841 9554 ft 287 kts 277°
2026-05-08 16:26 53.14931 -2.69114 9365 ft 286 kts 277°
2026-05-08 16:26 53.15247 -2.72372 9185 ft 285 kts 277°
2026-05-08 16:26 53.15561 -2.75644 9002 ft 284 kts 276°
2026-05-08 16:27 53.15870 -2.78883 8821 ft 284 kts 276°
2026-05-08 16:27 53.16178 -2.82128 8638 ft 283 kts 276°
2026-05-08 16:27 53.16485 -2.85355 8466 ft 282 kts 277°
2026-05-08 16:27 53.16794 -2.88596 8285 ft 282 kts 276°
2026-05-08 16:28 53.17095 -2.91770 8107 ft 281 kts 277°
2026-05-08 16:28 53.17397 -2.94987 7919 ft 280 kts 276°
2026-05-08 16:28 53.17697 -2.98186 7749 ft 280 kts 277°
2026-05-08 16:28 53.17994 -3.01383 7566 ft 279 kts 277°
2026-05-08 16:29 53.18285 -3.04521 7446 ft 268 kts 276°
2026-05-08 16:29 53.18563 -3.07516 7335 ft 255 kts 277°
2026-05-08 16:29 53.18837 -3.10372 7223 ft 245 kts 281°
2026-05-08 16:29 53.19586 -3.12870 7114 ft 244 kts 314°
2026-05-08 16:30 53.21038 -3.14261 6945 ft 244 kts 350°
2026-05-08 16:30 53.22693 -3.14060 6754 ft 240 kts 25°
2026-05-08 16:30 53.23992 -3.12411 6563 ft 235 kts 58°
2026-05-08 16:30 53.24542 -3.09929 6374 ft 229 kts 90°
2026-05-08 16:31 53.24268 -3.07356 6198 ft 226 kts 112°
2026-05-08 16:31 53.23861 -3.04820 6009 ft 229 kts 97°
2026-05-08 16:31 53.23963 -3.02144 5827 ft 232 kts 78°
2026-05-08 16:31 53.24595 -2.99665 5644 ft 234 kts 62°
2026-05-08 16:32 53.25414 -2.97324 5453 ft 234 kts 62°
2026-05-08 16:32 53.26228 -2.94972 5217 ft 233 kts 62°
2026-05-08 16:32 53.27033 -2.92635 5025 ft 232 kts 62°
2026-05-08 16:32 53.27841 -2.90294 4832 ft 232 kts 62°
2026-05-08 16:33 53.28646 -2.87962 4650 ft 231 kts 63°
2026-05-08 16:33 53.29444 -2.85650 4457 ft 230 kts 62°
2026-05-08 16:33 53.30240 -2.83342 4282 ft 230 kts 62°
2026-05-08 16:33 53.31037 -2.81019 4076 ft 229 kts 62°
2026-05-08 16:34 53.31828 -2.78713 3959 ft 229 kts 63°
2026-05-08 16:34 53.32621 -2.76410 3877 ft 229 kts 62°
2026-05-08 16:34 53.33417 -2.74093 3780 ft 229 kts 62°
2026-05-08 16:34 53.34209 -2.71797 3675 ft 229 kts 61°
2026-05-08 16:35 53.35031 -2.69523 3486 ft 228 kts 60°
2026-05-08 16:35 53.35864 -2.67274 3306 ft 227 kts 60°
2026-05-08 16:35 53.36701 -2.65033 3144 ft 226 kts 60°
2026-05-08 16:35 53.37535 -2.62797 3028 ft 226 kts 60°
2026-05-08 16:36 53.38334 -2.60613 3000 ft 213 kts 64°
2026-05-08 16:36 53.38616 -2.58303 3002 ft 200 kts 102°
2026-05-08 16:36 53.38017 -2.56310 2995 ft 193 kts 139°
2026-05-08 16:36 53.36835 -2.55362 3011 ft 192 kts 175°
2026-05-08 16:37 53.35549 -2.55797 3022 ft 187 kts 211°
2026-05-08 16:37 53.34735 -2.57287 3031 ft 168 kts 243°
2026-05-08 16:37 53.34514 -2.59132 2922 ft 170 kts 264°
2026-05-08 16:37 53.34425 -2.61194 2707 ft 181 kts 264°
2026-05-08 16:38 53.34334 -2.63298 2472 ft 183 kts 264°
2026-05-08 16:38 53.34241 -2.65417 2224 ft 182 kts 264°
2026-05-08 16:38 53.34148 -2.67519 1973 ft 179 kts 265°
2026-05-08 16:38 53.34060 -2.69521 1750 ft 164 kts 264°
2026-05-08 16:39 53.33978 -2.71353 1494 ft 154 kts 264°
2026-05-08 16:39 53.33891 -2.73106 1210 ft 148 kts 264°
2026-05-08 16:39 53.33802 -2.74789 1073 ft 145 kts 264°
2026-05-08 16:39 53.33728 -2.76479 885 ft 146 kts 266°
2026-05-08 16:40 53.33652 -2.78151 698 ft 145 kts 267°
2026-05-08 16:40 53.33581 -2.79834 516 ft 147 kts 268°